User: anonymous   Login
Location: Tamazert
(32.6352°N, 5.2072°W)
Time: 17:39:37
(UTC+00:00)
Language:

BlueWalker 3 - Orbit

View from above orbital plane
View from above orbital plane
View from above satellite
View from above satellite

Ground track
Ground track

The orbit data is extracted from the following two-line orbital elements,

1 53807U 22111AL  24102.83519299  .00005677  00000-0  23798-3 0  9992
2 53807  53.2372 139.1381 0007583 255.0051 105.0109 15.24972182 88108
Epoch (UTC): 11 April 2024 20:02:40
Eccentricity: 0.0007583
inclination: 53.2372°
perigee height: 485 km
apogee height: 496 km
right ascension of ascending node: 139.1381°
argument of perigee: 255.0051°
revolutions per day: 15.24972182
mean anomaly at epoch: 105.0109°
orbit number at epoch: 8810

The dashed part of the orbit path shows where the satellite is in the earth's shadow,  

DLR